Nebraska City, NE

2:52 AM CST on December 09, 2019 (GMT -0600)
Nebraska City Municipal

Weather History for KAFK - November, 2019

Change the Weather History Date:

Wednesday, November 13, 2019

  Actual Average (KSDA) Record (KSDA)
Temperature  
Mean Temperature 32 °F -  
Max Temperature 41 °F 49 °F 87 °F (1999)
Min Temperature 23 °F 29 °F 10 °F (1986)
Degree Days  
Heating Degree Days 33    
Moisture  
Dew Point 21 °F    
Average Humidity 65    
Maximum Humidity 89    
Minimum Humidity 42    
Precipitation  
Precipitation 0.00 in - - ()
Sea Level Pressure  
Sea Level Pressure 30.00 in    
Wind  
Wind Speed 11 mph (WSW)    
Max Wind Speed 17 mph    
Max Gust Speed 23 mph    
Visibility 10 miles    
Events      
Averages and records for this station are not official NWS values.
T = Trace of Precipitation, MM = Missing Value Source: NWS Daily Summary

Daily Weather History Graph

Daily Weather History Graph

Search for Another Location

Airport or City:

Astronomy

Nov. 13, 2019 Rise Set
Actual Time 7:07 AM CST 5:07 PM CST
Civil Twilight 6:38 AM CST 5:36 PM CST
Nautical Twilight 6:05 AM CST 6:09 PM CST
Astronomical Twilight 5:33 AM CST 6:41 PM CST
Moon 6:11 PM CST (11/13) 8:01 AM CST (11/13)
Length of Visible Light 10h 58m
Length of Day
10h 00m
Full, 99% of the Moon is Illuminated
Nov 13
Full
Nov 19
Last Quarter
Nov 26
New
Dec 4
First Quarter
Dec 11
Full

Hourly Weather History & Observations

Time (CST) Temp. Windchill Dew Point Humidity Pressure Visibility Wind Dir Wind Speed Gust Speed Precip Events Conditions
12:15 AM 24.4 °F 12.4 °F 12.4 °F 60% 30.05 in 10.0 mi SSW 13.8 mph 23.0 mph N/A   Clear
12:35 AM 24.3 °F 10.8 °F 12.7 °F 62% 30.03 in 10.0 mi SSW 17.3 mph - N/A   Clear
12:55 AM 24.3 °F 11.7 °F 13.1 °F 63% 30.02 in 10.0 mi South 15.0 mph - N/A   Clear
1:15 AM 24.3 °F 11.2 °F 13.3 °F 63% 30.01 in 10.0 mi South 16.1 mph - N/A   Clear
1:35 AM 24.3 °F 11.7 °F 13.6 °F 64% 30.00 in 10.0 mi SSW 15.0 mph - N/A   Clear
1:55 AM 24.3 °F 12.7 °F 13.1 °F 63% 30.00 in 10.0 mi SSW 12.7 mph 18.4 mph N/A   Clear
2:15 AM 24.3 °F 12.2 °F 13.5 °F 63% 29.99 in 10.0 mi South 13.8 mph - N/A   Clear
2:35 AM 23.9 °F 11.7 °F 13.6 °F 65% 29.99 in 10.0 mi South 13.8 mph - N/A   Clear
2:55 AM 23.9 °F 11.7 °F 13.6 °F 65% 29.97 in 10.0 mi South 13.8 mph 19.6 mph N/A   Clear
3:15 AM 23.9 °F 11.7 °F 13.8 °F 65% 29.96 in 10.0 mi South 13.8 mph - N/A   Clear
3:35 AM 23.7 °F 11.5 °F 14.0 °F 66% 29.96 in 10.0 mi South 13.8 mph - N/A   Clear
3:55 AM 23.7 °F 11.5 °F 14.0 °F 66% 29.93 in 10.0 mi South 13.8 mph - N/A   Clear
4:15 AM 23.9 °F 12.9 °F 14.0 °F 66% 29.94 in 10.0 mi South 11.5 mph - N/A   Clear
4:35 AM 23.9 °F 12.3 °F 14.0 °F 66% 29.93 in 10.0 mi South 12.7 mph - N/A   Clear
4:55 AM 23.9 °F 12.9 °F 14.0 °F 66% 29.93 in 10.0 mi South 11.5 mph - N/A   Clear
5:15 AM 23.9 °F 13.5 °F 14.0 °F 66% 29.94 in 10.0 mi South 10.4 mph - N/A   Clear
5:35 AM 24.1 °F 12.5 °F 14.4 °F 66% 29.94 in 10.0 mi SSW 12.7 mph - N/A   Clear
5:55 AM 24.4 °F 13.5 °F 14.9 °F 67% 29.92 in 10.0 mi South 11.5 mph - N/A   Clear
6:15 AM 24.4 °F 15.6 °F 14.7 °F 67% 29.95 in 10.0 mi SSW 8.1 mph - N/A   Clear
6:35 AM 24.6 °F 15.1 °F 15.3 °F 68% 29.94 in 10.0 mi South 9.2 mph - N/A   Clear
6:55 AM 25.2 °F 15.7 °F 15.8 °F 68% 29.94 in 10.0 mi South 9.2 mph - N/A   Clear
7:15 AM 25.7 °F 16.4 °F 16.0 °F 67% 29.95 in 10.0 mi South 9.2 mph - N/A   Scattered Clouds
7:35 AM 26.1 °F 16.2 °F 16.2 °F 66% 29.94 in 10.0 mi South 10.4 mph - N/A   Scattered Clouds
7:55 AM 26.4 °F 16.0 °F 16.7 °F 67% 29.94 in 10.0 mi South 11.5 mph - N/A   Overcast
8:15 AM 27.0 °F 17.3 °F 17.1 °F 66% 29.95 in 10.0 mi South 10.4 mph - N/A   Overcast
8:35 AM 27.5 °F 16.3 °F 17.6 °F 66% 29.94 in 10.0 mi South 13.8 mph - N/A   Mostly Cloudy
8:55 AM 28.0 °F 18.6 °F 17.6 °F 65% 29.95 in 10.0 mi South 10.4 mph - N/A   Mostly Cloudy
9:15 AM 28.6 °F 19.3 °F 18.3 °F 65% 29.96 in 10.0 mi SSW 10.4 mph - N/A   Scattered Clouds
9:35 AM 29.7 °F 21.3 °F 18.5 °F 63% 29.96 in 10.0 mi SSW 9.2 mph - N/A   Clear
9:55 AM 30.2 °F 20.8 °F 18.5 °F 62% 29.96 in 10.0 mi SSW 11.5 mph - N/A   Clear
10:15 AM 31.1 °F 23.1 °F 18.9 °F 61% 29.95 in 10.0 mi South 9.2 mph - N/A   Clear
10:35 AM 32.0 °F 24.2 °F 18.9 °F 58% 29.96 in 10.0 mi SSW 9.2 mph - N/A   Clear
10:55 AM 32.7 °F 26.4 °F 19.4 °F 58% 29.97 in 10.0 mi SW 6.9 mph - N/A   Clear
11:15 AM 33.6 °F 26.8 °F 19.8 °F 57% 29.97 in 10.0 mi SW 8.1 mph - N/A   Clear
11:35 AM 34.3 °F 29.2 °F 20.5 °F 57% 29.96 in 10.0 mi SW 5.8 mph - N/A   Clear
11:55 AM 36.5 °F 29.7 °F 20.8 °F 53% 29.97 in 10.0 mi SW 9.2 mph - N/A   Clear
12:15 PM 36.9 °F 29.6 °F 19.8 °F 50% 29.97 in 10.0 mi WSW 10.4 mph - N/A   Clear
12:35 PM 38.3 °F 33.2 °F 20.3 °F 48% 29.96 in 10.0 mi West 6.9 mph - N/A   Clear
12:55 PM 39.0 °F 32.8 °F 19.9 °F 46% 29.96 in 10.0 mi West 9.2 mph - N/A   Clear
1:15 PM 39.4 °F 34.5 °F 19.2 °F 44% 29.95 in 10.0 mi West 6.9 mph - N/A   Clear
1:55 PM 41.0 °F 36.4 °F 19.9 °F 43% 29.96 in 10.0 mi WNW 6.9 mph - N/A   Scattered Clouds
2:35 PM 41.5 °F 37.1 °F 20.1 °F 42% 29.96 in 10.0 mi WNW 6.9 mph - N/A   Overcast
2:55 PM 41.9 °F 40.0 °F 20.5 °F 42% 29.96 in 10.0 mi WNW 3.5 mph - N/A   Overcast
3:15 PM 41.9 °F 40.0 °F 20.5 °F 42% 29.96 in 10.0 mi WNW 3.5 mph - N/A   Overcast
3:35 PM 41.5 °F 37.1 °F 20.7 °F 43% 29.98 in 10.0 mi NW 6.9 mph - N/A   Overcast
3:55 PM 41.0 °F 38.0 °F 21.6 °F 46% 29.98 in 10.0 mi NNW 4.6 mph - N/A   Overcast
4:35 PM 40.1 °F 36.1 °F 23.7 °F 52% 30.01 in 10.0 mi NW 5.8 mph - N/A   Overcast
4:55 PM 39.6 °F 36.3 °F 23.9 °F 54% 30.01 in 10.0 mi NNW 4.6 mph - N/A   Overcast
5:15 PM 39.7 °F 34.3 °F 26.2 °F 59% 30.02 in 10.0 mi NNW 8.1 mph - N/A   Overcast
5:35 PM 39.7 °F 34.9 °F 30.0 °F 68% 30.03 in 10.0 mi NNW 6.9 mph - N/A   Overcast
5:55 PM 39.6 °F 34.0 °F 31.1 °F 72% 30.03 in 10.0 mi NNW 8.1 mph - N/A   Overcast
6:15 PM 39.6 °F 34.0 °F 31.8 °F 74% 30.04 in 10.0 mi North 8.1 mph - N/A   Overcast
6:35 PM 39.2 °F 35.0 °F 32.0 °F 75% 30.04 in 10.0 mi North 5.8 mph - N/A   Overcast
6:55 PM 37.4 °F 32.8 °F 31.1 °F 78% 30.05 in 10.0 mi NNW 5.8 mph - N/A   Mostly Cloudy
7:15 PM 36.7 °F 32.9 °F 32.0 °F 83% 30.07 in 10.0 mi NNW 4.6 mph - N/A   Mostly Cloudy
7:35 PM 37.4 °F 32.8 °F 32.2 °F 81% 30.08 in 10.0 mi NNW 5.8 mph - N/A   Overcast
7:55 PM 38.3 °F 33.2 °F 32.4 °F 79% 30.08 in 10.0 mi NNW 6.9 mph - N/A   Overcast
8:55 PM 37.0 °F 31.0 °F 33.6 °F 87% 30.09 in 10.0 mi NNW 8.1 mph - N/A   Mostly Cloudy
9:15 PM 36.5 °F 29.7 °F 33.4 °F 89% 30.10 in 10.0 mi NNW 9.2 mph - N/A   Mostly Cloudy
9:35 PM 37.0 °F 31.0 °F 33.8 °F 88% 30.11 in 10.0 mi NNW 8.1 mph - N/A   Overcast
9:55 PM 37.9 °F 32.1 °F 33.8 °F 85% 30.11 in 10.0 mi North 8.1 mph - N/A   Overcast
10:15 PM 38.3 °F 32.5 °F 33.4 °F 83% 30.12 in 10.0 mi NNW 8.1 mph - N/A   Overcast
10:35 PM 38.3 °F 31.9 °F 33.8 °F 84% 30.12 in 10.0 mi NNW 9.2 mph - N/A   Overcast
10:55 PM 38.3 °F 31.9 °F 33.8 °F 84% 30.13 in 10.0 mi NNW 9.2 mph - N/A   Overcast
11:15 PM 37.9 °F 31.5 °F 33.4 °F 84% 30.13 in 10.0 mi North 9.2 mph - N/A   Overcast
11:35 PM 37.6 °F 30.5 °F 33.3 °F 84% 30.13 in 10.0 mi North 10.4 mph - N/A   Overcast
11:55 PM 37.0 °F 31.0 °F 33.1 °F 86% 30.14 in 10.0 mi North 8.1 mph - N/A   Overcast